AKST,Max TemperatureF,Mean TemperatureF,Min TemperatureF,Max Dew PointF,MeanDew PointF,Min DewpointF,Max Humidity, Mean Humidity, Min Humidity, Max Sea Level PressureIn, Mean Sea Level PressureIn, Min Sea Level PressureIn, Max VisibilityMiles, Mean VisibilityMiles, Min VisibilityMiles, Max Wind SpeedMPH, Mean Wind SpeedMPH, Max Gust SpeedMPH,PrecipitationIn, CloudCover, Events, WindDirDegrees
2014-2-1,37,34,30,21,20,18,69,59,46,30.38,30.30,30.22,10,10,10,16,13,26,0.00,0,,8
2014-2-2,33,28,21,23,20,18,88,77,61,30.43,30.38,30.37,10,10,10,9,6,,0.00,0,,345
2014-2-3,35,29,23,32,28,21,100,91,82,30.56,30.48,30.43,10,9,2,6,1,,0.00,7,Snow,347
2014-2-4,36,32,27,32,28,22,96,88,69,30.72,30.67,30.57,10,10,9,7,1,,0.00,6,,4
2014-2-5,39,33,27,23,20,16,75,61,45,30.71,30.60,30.54,10,10,10,16,12,23,0.00,0,,19
2014-2-6,34,29,24,25,17,13,86,64,44,30.53,30.02,29.59,10,9,2,21,12,38,0.00,4,Snow,4
2014-2-7,37,34,30,30,25,13,88,72,45,30.05,29.69,29.49,10,5,1,28,17,44,0.00,8,Snow,345
2014-2-8,35,30,24,27,19,5,88,68,44,30.21,30.14,30.06,10,10,10,23,7,33,0.00,1,,360
2014-2-9,24,21,18,7,3,0,54,47,42,30.06,29.91,29.78,10,10,10,28,22,39,0.00,1,,5
2014-2-10,26,22,19,18,10,-1,74,61,38,29.84,29.80,29.75,10,8,1,26,20,40,0.00,5,Snow,1
2014-2-11,24,18,12,5,1,-4,67,48,34,29.80,29.62,29.39,10,10,10,22,15,32,0.00,2,,18
2014-2-12,17,14,10,-1,-6,-9,49,41,33,29.36,29.15,28.95,10,10,5,30,23,39,0.00,7,Snow,356
2014-2-13,19,14,8,13,4,-3,92,72,54,29.00,28.92,28.85,10,3,0,28,18,38,0.00,8,Fog-Snow,350
2014-2-14,25,21,17,24,16,7,96,82,48,28.99,28.82,28.63,10,2,0,29,11,38,0.00,8,Fog-Snow,1
2014-2-15,21,18,15,19,17,10,93,86,68,28.88,28.71,28.57,10,6,0,18,7,24,0.00,8,Fog-Snow,357
2014-2-16,26,22,17,25,18,11,93,88,74,29.03,28.94,28.72,10,4,0,10,4,,0.00,7,Fog-Snow,356
2014-2-17,26,22,19,23,19,15,96,83,66,29.21,29.11,29.00,10,6,0,16,7,24,0.00,7,Fog-Snow,1
2014-2-18,33,28,24,25,22,17,100,83,60,29.35,29.24,29.13,10,5,0,18,9,24,0.01,8,Fog-Snow,341
2014-2-19,28,24,21,22,18,11,93,83,63,29.69,29.47,29.34,10,4,0,14,7,21,0.02,6,Fog-Snow,7
2014-2-20,28,21,14,14,12,9,80,65,51,30.11,29.93,29.72,10,10,10,16,13,26,0.00,2,,4
2014-2-21,30,23,16,24,19,10,89,78,61,30.32,30.25,30.13,10,7,2,10,5,,0.00,8,Snow,331
2014-2-22,36,31,26,27,25,23,92,82,64,30.34,30.30,30.24,10,8,2,4,0,,0.00,8,Snow,320
2014-2-23,39,26,12,25,16,9,96,74,36,30.23,30.17,30.11,10,10,10,7,2,,0.00,1,,345
2014-2-24,37,22,7,21,12,2,84,69,34,30.15,30.10,30.07,10,10,10,14,6,,0.00,2,,337
2014-2-25,36,26,15,26,20,12,92,78,55,30.16,30.06,29.91,10,9,2,9,4,,0.00,2,,343
2014-2-26,36,33,30,36,34,25,100,95,79,29.89,29.76,29.72,10,3,0,5,1,,0.45,8,Fog-Rain,352
2014-2-27,42,38,35,40,36,33,100,95,82,30.00,29.81,29.71,10,3,0,10,1,17,0.12,8,Fog-Rain,336
2014-2-28,45,40,34,36,33,30,100,86,65,30.05,30.02,29.96,10,8,2,26,7,33,0.00,4,,4